DW5963 Weather Reports


Display with metric or nautical units.
time (UTC)temp
F
wind
direction
speed
MPH
gust
MPH
rain 1hr
in
rain 24hr
in
rain mn
in
humidity
%
barometer
mb
20260904060530 64 360 0.0 0.0 0.00 0.00 0.00 87 1008.2
20260904060030 64 360 0.0 0.0 0.00 0.00 0.00 87 1008.1
20260904055530 64 360 0.0 0.0 0.00 0.00 0.00 87 1008.1
20260904055029 64 360 1.0 0.0 0.00 0.00 0.00 86 1008.1
20260904054534 64 360 3.0 0.0 0.00 0.00 0.00 87 1008.2
20260904053532 65 360 3.0 0.0 0.00 0.00 0.00 86 1008.0
20260904053030 65 360 3.0 0.0 0.00 0.00 0.00 86 1008.0
20260904052531 65 360 3.0 0.0 0.00 0.00 0.00 86 1008.0
20260904052031 65 360 4.0 0.0 0.00 0.00 0.00 85 1007.9
20260904051530 66 360 4.0 0.0 0.00 0.00 0.00 85 1007.9
20260904051031 66 360 5.0 0.0 0.00 0.00 0.00 85 1008.0
20260904050529 66 360 6.0 0.0 0.00 0.00 0.00 86 1007.9
20260904050030 66 360 6.0 0.0 0.00 0.00 0.00 87 1007.8
20260904045528 65 360 5.0 0.0 0.00 0.00 0.00 88 1007.8
20260904045028 64 360 3.0 0.0 0.00 0.00 0.00 89 1007.6
20260904044529 63 360 0.0 0.0 0.00 0.00 0.00 89 1007.5
20260904043525 62 360 1.0 0.0 0.00 0.00 0.00 88 1007.5
20260904043026 62 360 1.0 0.0 0.00 0.00 0.00 89 1007.6
20260904042526 61 360 0.0 0.0 0.00 0.00 0.00 89 1007.6
20260904042029 61 360 0.0 0.0 0.00 0.00 0.00 89 1007.7
20260904041526 60 360 1.0 0.0 0.00 0.00 0.00 89 1007.6
20260904041025 59 360 1.0 0.0 0.00 0.00 0.00 88 1007.7
20260904040528 59 360 2.0 0.0 0.00 0.00 0.00 87 1007.7
20260904040025 58 360 2.0 0.0 0.00 0.00 0.00 87 1007.7
20260904035524 58 360 1.0 0.0 0.00 0.00 0.00 85 1007.6
20260904035027 59 360 2.0 0.0 0.00 0.00 0.00 86 1007.7
20260904034527 59 360 2.0 0.0 0.00 0.00 0.00 86 1007.6
20260904033524 59 360 2.0 0.0 0.00 0.00 0.00 85 1007.6
20260904033026 59 360 1.0 0.0 0.00 0.00 0.00 84 1007.6
20260904032523 60 360 0.0 0.0 0.00 0.00 0.00 84 1007.7
20260904032024 60 360 0.0 0.0 0.00 0.00 0.00 82 1007.6
20260904031523 60 360 0.0 0.0 0.00 0.00 0.00 80 1007.6
20260904031026 61 360 0.0 0.0 0.00 0.00 0.00 80 1007.6
20260904030523 62 360 0.0 0.0 0.00 0.00 0.00 81 1007.6
20260904030029 63 360 0.0 0.0 0.00 0.00 0.00 81 1007.4
20260904025522 64 360 0.0 0.0 0.00 0.00 0.00 81 1007.4
20260904025021 64 360 0.0 0.0 0.00 0.00 0.00 80 1007.5
20260904024523 64 360 0.0 0.0 0.00 0.00 0.00 80 1007.4
20260904023520 64 360 0.0 0.0 0.00 0.00 0.00 79 1007.2
20260904023020 64 360 0.0 0.0 0.00 0.00 0.00 79 1007.1
20260904022519 65 360 0.0 0.0 0.00 0.00 0.00 78 1007.0
20260904022019 65 360 0.0 0.0 0.00 0.00 0.00 77 1006.8
20260904021530 66 360 0.0 0.0 0.00 0.00 0.00 77 1006.8
20260904021017 66 360 0.0 0.0 0.00 0.00 0.00 77 1006.5
20260904020516 66 360 1.0 0.0 0.00 0.00 0.00 76 1006.3
20260904020116 67 360 1.0 0.0 0.00 0.00 0.00 75 1006.2
20260904015515 68 360 2.0 0.0 0.00 0.00 0.00 74 1006.2
20260904015016 69 360 1.0 0.0 0.00 0.00 0.00 72 1006.1
20260904014515 70 360 0.0 0.0 0.00 0.00 0.00 73 1006.0
20260904013515 71 360 0.0 0.0 0.00 0.00 0.00 68 1005.8
20260904013015 72 360 0.0 0.0 0.00 0.00 0.00 67 1005.8
20260904012514 74 360 0.0 0.0 0.00 0.00 0.00 65 1005.8
20260904012014 76 360 0.0 0.0 0.00 0.00 0.00 63 1005.7
20260904011514 77 107 0.0 0.0 0.00 0.00 0.00 63 1005.7
20260904011014 77 107 0.0 0.0 0.00 0.00 0.00 62 1005.7
20260904010516 77 107 1.0 0.0 0.00 0.00 0.00 62 1005.7
20260904010019 77 107 1.0 0.0 0.00 0.00 0.00 61 1005.6
20260904005513 78 107 1.0 0.0 0.00 0.00 0.00 61 1005.6
20260904005017 78 107 2.0 0.0 0.00 0.00 0.00 60 1005.5
20260904004514 79 107 2.0 0.0 0.00 0.00 0.00 60 1005.5
20260904003513 79 107 1.0 0.0 0.00 0.00 0.00 60 1005.3
20260904003016 79 107 1.0 0.0 0.00 0.00 0.00 60 1005.2
20260904002513 78 107 2.0 0.0 0.00 0.00 0.00 61 1005.2
20260904002013 77 107 2.0 0.0 0.00 0.00 0.00 62 1005.1
20260904001512 77 107 2.0 0.0 0.00 0.00 0.00 62 1005.2
20260904001013 77 107 2.0 0.0 0.00 0.00 0.00 62 1005.1
20260904000515 77 360 2.0 0.0 0.00 0.00 0.00 62 1005.1
20260904000013 77 360 2.0 0.0 0.00 0.00 0.00 61 1005.0
20260903235512 78 360 2.0 0.0 0.00 0.00 0.00 60 1005.0
20260903235012 78 360 3.0 0.0 0.00 0.00 0.00 59 1005.0
20260903234513 79 360 4.0 0.0 0.00 0.00 0.00 59 1005.0
20260903233512 79 360 5.0 0.0 0.00 0.00 0.00 58 1004.9
20260903233011 79 360 6.0 0.0 0.00 0.00 0.00 58 1004.9
20260903232512 79 360 7.0 0.0 0.00 0.00 0.00 57 1004.8
20260903232011 80 360 5.0 0.0 0.00 0.00 0.00 56 1004.8
20260903231511 82 360 3.0 0.0 0.00 0.00 0.00 51 1004.7
20260903231010 81 360 3.0 0.0 0.00 0.00 0.00 46 1004.6
20260903230510 81 360 4.0 0.0 0.00 0.00 0.00 45 1004.6
20260903230013 82 360 4.0 0.0 0.00 0.00 0.00 48 1004.5
20260903225512 81 360 4.0 0.0 0.00 0.00 0.00 49 1004.5
20260903225010 81 360 4.0 0.0 0.00 0.00 0.00 51 1004.4
20260903224510 81 360 5.0 0.0 0.00 0.00 0.00 50 1004.4
20260903223513 81 360 5.0 0.0 0.00 0.00 0.00 53 1004.3
20260903223010 81 360 4.0 0.0 0.00 0.00 0.00 49 1004.2
20260903222511 81 360 4.0 0.0 0.00 0.00 0.00 50 1004.3
20260903222013 81 360 5.0 0.0 0.00 0.00 0.00 51 1004.3
20260903221525 81 360 5.0 0.0 0.00 0.00 0.00 51 1004.1
20260903221013 81 360 6.0 0.0 0.00 0.00 0.00 51 1004.1
20260903220510 81 360 5.0 0.0 0.00 0.00 0.00 52 1004.2
20260903220010 81 360 5.0 0.0 0.00 0.00 0.00 52 1004.1
20260903215511 82 360 5.0 0.0 0.00 0.00 0.00 52 1004.0
20260903215010 82 360 6.0 0.0 0.00 0.00 0.00 51 1004.0
20260903214510 83 360 6.0 0.0 0.00 0.00 0.00 52 1004.0
20260903213510 82 360 6.0 0.0 0.00 0.00 0.00 51 1004.0
20260903213018 83 360 5.0 0.0 0.00 0.00 0.00 51 1004.0
20260903212509 83 360 5.0 0.0 0.00 0.00 0.00 52 1003.9
20260903212011 84 360 4.0 0.0 0.00 0.00 0.00 50 1003.9
20260903211509 84 360 3.0 0.0 0.00 0.00 0.00 47 1003.9
20260903211008 83 360 2.0 0.0 0.00 0.00 0.00 48 1003.8
20260903210508 83 360 2.0 0.0 0.00 0.00 0.00 49 1003.8
20260903210011 84 360 3.0 0.0 0.00 0.00 0.00 48 1003.8
20260903205510 83 360 4.0 0.0 0.00 0.00 0.00 48 1003.8
20260903205006 83 360 4.0 0.0 0.00 0.00 0.00 49 1003.8
20260903204507 83 360 3.0 0.0 0.00 0.00 0.00 50 1003.8
20260903203507 82 360 2.0 0.0 0.00 0.00 0.00 50 1004.0
20260903203006 82 360 3.0 0.0 0.00 0.00 0.00 50 1004.1
20260903202503 83 360 3.0 0.0 0.00 0.00 0.00 52 1004.2
20260903202003 82 360 2.0 0.0 0.00 0.00 0.00 53 1004.3
20260903201503 81 360 2.0 0.0 0.00 0.00 0.00 55 1004.3
20260903201059 81 360 2.0 0.0 0.00 0.00 0.00 55 1004.4
20260903200559 80 360 3.0 0.0 0.00 0.00 0.00 55 1004.3
20260903200059 81 360 2.0 0.0 0.00 0.00 0.00 55 1004.2
20260903195601 80 360 3.0 0.0 0.00 0.00 0.00 56 1004.2
20260903195057 80 360 4.0 0.0 0.00 0.00 0.00 57 1004.3
20260903194557 80 360 4.0 0.0 0.00 0.00 0.00 57 1004.3
20260903193558 79 360 4.0 0.0 0.00 0.00 0.00 59 1004.1
20260903193056 79 360 3.0 0.0 0.00 0.00 0.00 60 1004.0
20260903192555 78 360 2.0 0.0 0.00 0.00 0.00 60 1004.2
20260903192053 78 360 3.0 0.0 0.00 0.00 0.00 62 1004.4
20260903191552 77 188 3.0 0.0 0.00 0.00 0.00 64 1004.4
20260903191051 76 360 3.0 0.0 0.00 0.00 0.00 64 1004.5
20260903190553 75 88 3.0 0.0 0.00 0.00 0.00 64 1004.5
20260903190051 75 234 3.0 0.0 0.00 0.00 0.00 64 1004.6
20260903185550 75 237 4.0 0.0 0.00 0.00 0.00 65 1004.6
20260903185052 75 181 5.0 0.0 0.00 0.00 0.00 66 1004.5
20260903184550 75 360 4.0 0.0 0.00 0.00 0.00 66 1004.5
20260903183550 75 188 4.0 0.0 0.00 0.00 0.00 65 1004.4
20260903183050 75 360 4.0 0.0 0.00 0.00 0.00 65 1004.4
20260903182550 76 123 4.0 0.0 0.00 0.00 0.00 65 1004.5
20260903182049 76 360 5.0 0.0 0.00 0.00 0.00 65 1004.4
20260903181549 76 103 7.0 0.0 0.00 0.00 0.00 65 1004.5
20260903181048 75 136 7.0 0.0 0.00 0.00 0.00 66 1004.7
20260903180548 75 167 6.0 0.0 0.00 0.00 0.00 66 1004.7
20260903180110 74 174 6.0 0.0 0.00 0.00 0.00 67 1004.6
20260903175547 74 182 6.0 0.0 0.00 0.00 0.00 68 1004.7
20260903175044 74 188 6.0 0.0 0.00 0.00 0.00 69 1004.8
20260903174544 73 360 7.0 0.0 0.00 0.00 0.00 69 1004.8
20260903173543 73 173 7.0 0.0 0.00 0.00 0.00 69 1004.9
20260903173043 73 180 7.0 0.0 0.00 0.00 0.00 69 1005.1
20260903172542 73 360 8.0 0.0 0.00 0.00 0.00 69 1005.1
20260903172042 73 360 7.0 0.0 0.00 0.00 0.00 69 1005.4
20260903171548 72 360 6.0 0.0 0.00 0.00 0.00 70 1005.6
20260903171040 72 171 6.0 0.0 0.00 0.00 0.00 69 1005.4
20260903170541 72 360 6.0 0.0 0.00 0.00 0.00 70 1005.1
20260903170041 72 360 5.0 0.0 0.00 0.00 0.00 70 1004.9
20260903165544 72 95 4.0 0.0 0.00 0.00 0.00 69 1004.7
20260903165044 72 186 4.0 0.0 0.00 0.00 0.00 69 1005.4
20260903164545 72 360 4.0 0.0 0.00 0.00 0.00 71 1005.1
20260903163540 71 360 5.0 0.0 0.00 0.00 0.00 71 1005.4
20260903163044 71 360 4.0 0.0 0.00 0.00 0.00 72 1005.4
20260903162543 70 360 4.0 0.0 0.00 0.00 0.00 74 1005.2
20260903162039 69 360 4.0 0.0 0.00 0.00 0.00 75 1005.4
20260903161538 69 360 4.0 0.0 0.00 0.00 0.00 75 1005.5
20260903161038 68 360 3.0 0.0 0.00 0.00 0.00 75 1005.6
20260903160539 68 360 2.0 0.0 0.00 0.00 0.00 75 1005.4
20260903160039 68 360 3.0 0.0 0.00 0.00 0.00 75 1005.4
20260903155542 68 360 3.0 0.0 0.00 0.00 0.00 75 1005.5
20260903155039 68 360 3.0 0.0 0.00 0.00 0.00 76 1005.5
20260903154538 68 360 4.0 0.0 0.00 0.00 0.00 75 1005.6
20260903153537 68 360 4.0 0.0 0.00 0.00 0.00 76 1005.4
20260903153037 68 360 2.0 0.0 0.00 0.00 0.00 77 1005.5
20260903152537 67 360 2.0 0.0 0.00 0.00 0.00 78 1005.2
20260903152042 67 360 3.0 0.0 0.00 0.00 0.00 79 1005.0
20260903151536 66 360 4.0 0.0 0.00 0.00 0.00 80 1004.7
20260903151037 66 360 4.0 0.0 0.00 0.00 0.00 80 1005.2
20260903150537 66 360 6.0 0.0 0.00 0.00 0.00 80 1005.4
20260903150038 66 360 6.0 0.0 0.00 0.00 0.00 80 1005.5
20260903145538 66 360 6.0 0.0 0.00 0.00 0.00 81 1005.3
20260903145036 65 360 9.0 0.0 0.00 0.00 0.00 82 1004.1
20260903144537 65 360 9.0 0.0 0.00 0.00 0.00 82 1003.8
20260903143535 65 360 7.0 0.0 0.00 0.00 0.00 82 1003.8
20260903143036 65 360 6.0 0.0 0.00 0.00 0.00 82 1004.1
20260903142536 65 360 8.0 0.0 0.00 0.00 0.00 82 1004.2
20260903142036 64 360 7.0 0.0 0.00 0.00 0.00 83 1003.7
20260903141536 64 360 5.0 0.0 0.00 0.00 0.00 84 1004.4
20260903141037 64 360 3.0 0.0 0.00 0.00 0.00 84 1004.6
20260903140539 64 360 2.0 0.0 0.00 0.00 0.00 84 1005.6
20260903140035 64 360 5.0 0.0 0.00 0.00 0.00 84 1006.1
20260903135534 64 360 5.0 0.0 0.00 0.00 0.00 85 1006.4
20260903135036 63 360 2.0 0.0 0.00 0.00 0.00 85 1005.4
20260903134533 63 360 1.0 0.0 0.00 0.00 0.00 84 1005.7
20260903133532 63 360 5.0 0.0 0.00 0.00 0.00 85 1005.9
20260903133032 63 360 6.0 0.0 0.00 0.00 0.00 86 1005.2
20260903132531 63 360 5.0 0.0 0.00 0.00 0.00 86 1004.8
20260903132031 63 360 4.0 0.0 0.00 0.00 0.00 87 1005.0
20260903131531 62 360 3.0 0.0 0.00 0.00 0.00 88 1005.1
20260903131031 61 360 1.0 0.0 0.00 0.00 0.00 89 1005.2
20260903130530 60 360 0.0 0.0 0.00 0.00 0.00 90 1005.4
20260903130031 59 360 1.0 0.0 0.00 0.00 0.00 89 1005.2
20260903125531 59 360 1.0 0.0 0.00 0.00 0.00 88 1005.0
20260903125028 59 360 2.0 0.0 0.00 0.00 0.00 87 1004.4
20260903124527 59 360 3.0 0.0 0.00 0.00 0.00 87 1004.2
20260903123527 59 360 1.0 0.0 0.00 0.00 0.00 86 1004.1
20260903123027 60 360 0.0 0.0 0.00 0.00 0.00 85 1004.1
20260903122526 60 360 0.0 0.0 0.00 0.00 0.00 84 1004.1
20260903122024 61 360 0.0 0.0 0.00 0.00 0.00 85 1004.0
20260903121524 61 360 1.0 0.0 0.00 0.00 0.00 85 1004.0
20260903121023 61 360 1.0 0.0 0.00 0.00 0.00 85 1004.1
20260903120523 61 360 1.0 0.0 0.00 0.00 0.00 85 1004.1
20260903120022 61 360 2.0 0.0 0.00 0.00 0.00 86 1004.0
20260903115522 61 360 4.0 0.0 0.00 0.00 0.00 86 1004.0
20260903115021 61 360 4.0 0.0 0.00 0.00 0.00 85 1004.0
20260903114521 61 360 3.0 0.0 0.00 0.00 0.00 85 1003.4
20260903113521 62 360 2.0 0.0 0.00 0.00 0.00 84 1003.9
20260903113032 62 360 2.0 0.0 0.00 0.00 0.00 84 1004.5
20260903112522 62 360 1.0 0.0 0.00 0.00 0.00 83 1004.5
20260903112023 62 360 2.0 0.0 0.00 0.00 0.00 83 1004.0
20260903111519 62 360 3.0 0.0 0.00 0.00 0.00 83 1003.5
20260903111019 62 360 4.0 0.0 0.00 0.00 0.00 83 1003.6
20260903110521 62 360 5.0 0.0 0.00 0.00 0.00 83 1003.6
20260903110039 62 360 5.0 0.0 0.00 0.00 0.00 83 1003.4
20260903105517 63 360 6.0 0.0 0.00 0.00 0.00 83 1003.5
20260903105018 63 360 9.0 0.0 0.00 0.00 0.00 83 1003.7
20260903104517 63 360 11.0 0.0 0.00 0.00 0.00 84 1003.5
20260903103520 63 360 13.0 0.0 0.00 0.00 0.00 84 1003.6
20260903103015 63 360 14.0 0.0 0.00 0.00 0.00 84 1003.6
20260903102514 63 360 14.0 0.0 0.00 0.00 0.00 83 1003.6
20260903102013 63 360 13.0 0.0 0.00 0.00 0.00 84 1003.6
20260903101513 63 360 11.0 0.0 0.00 0.00 0.00 84 1003.8
20260903101012 63 360 11.0 0.0 0.00 0.00 0.00 83 1003.4
20260903100511 63 360 11.0 0.0 0.00 0.00 0.00 83 1003.4
20260903100009 63 360 11.0 0.0 0.00 0.00 0.00 82 1003.5
20260903095508 63 360 11.0 0.0 0.00 0.00 0.00 81 1003.7
20260903095007 64 360 11.0 0.0 0.00 0.00 0.00 79 1003.7
20260903094520 65 360 10.0 0.0 0.00 0.00 0.00 75 1003.7
20260903093508 67 360 9.0 0.0 0.00 0.00 0.00 70 1003.5
20260903093006 67 360 9.0 0.0 0.00 0.00 0.00 69 1003.4
20260903092505 67 360 9.0 0.0 0.00 0.00 0.00 70 1003.5
20260903092005 67 360 7.0 0.0 0.00 0.00 0.00 71 1003.6
20260903091504 66 360 6.0 0.0 0.00 0.00 0.00 73 1003.8
20260903091004 66 360 6.0 0.0 0.00 0.00 0.00 74 1003.7
20260903090504 65 360 6.0 0.0 0.00 0.00 0.00 75 1003.6
20260903090004 65 360 7.0 0.0 0.00 0.00 0.00 76 1003.9
20260903085503 65 360 7.0 0.0 0.00 0.00 0.00 76 1004.0
20260903085003 65 360 7.0 0.0 0.00 0.00 0.00 76 1004.0
20260903084502 65 360 6.0 0.0 0.00 0.00 0.00 76 1004.2
20260903083501 65 360 6.0 0.0 0.00 0.00 0.00 75 1004.5
20260903083002 65 360 6.0 0.0 0.00 0.00 0.00 75 1004.6
20260903082600 65 360 6.0 0.0 0.00 0.00 0.00 75 1004.5
20260903082101 65 360 6.0 0.0 0.00 0.00 0.00 75 1004.5
20260903081612 65 360 6.0 0.0 0.00 0.00 0.00 75 1004.6
20260903081059 65 360 6.0 0.0 0.00 0.00 0.00 74 1004.5
20260903080600 66 360 9.0 0.0 0.00 0.00 0.00 74 1004.4
20260903080058 66 360 11.0 0.0 0.00 0.00 0.00 72 1004.6
20260903075557 67 360 10.0 0.0 0.00 0.00 0.00 71 1004.5
20260903075055 67 360 11.0 0.0 0.00 0.00 0.00 69 1004.5
20260903074605 68 360 11.0 0.0 0.00 0.00 0.00 67 1004.6
20260903073552 71 360 11.0 0.0 0.00 0.00 0.00 61 1004.8
20260903073050 72 360 8.0 0.0 0.00 0.00 0.00 60 1004.8
20260903072550 74 360 4.0 0.0 0.00 0.00 0.00 65 1004.8
20260903072050 74 360 3.0 0.0 0.00 0.00 0.00 65 1004.7
20260903071553 74 360 5.0 0.0 0.00 0.00 0.00 66 1004.8
20260903071049 74 360 9.0 0.0 0.00 0.00 0.00 66 1004.9
20260903070553 73 360 13.0 0.0 0.00 0.00 0.00 66 1004.9
20260903070050 72 360 10.0 0.0 0.00 0.00 0.00 68 1004.8
20260903065551 72 360 8.0 0.0 0.00 0.00 0.00 67 1004.5
20260903065049 72 360 9.0 0.0 0.00 0.00 0.00 67 1002.8
20260903064551 72 360 10.0 0.0 0.00 0.00 0.00 67 1002.9
20260903063550 72 360 11.0 0.0 0.00 0.00 0.00 68 1002.5
20260903063049 72 360 10.0 0.0 0.00 0.00 0.00 68 1002.3
20260903062553 72 360 10.0 0.0 0.00 0.00 0.00 68 1002.2
20260903062047 72 360 9.0 0.0 0.00 0.00 0.00 68 1002.1
20260903061553 72 360 10.0 0.0 0.00 0.00 0.00 67 1002.2
20260903061048 72 360 9.0 0.0 0.00 0.00 0.00 66 1002.3